User: anonymous   Login
Location: Unspecified
(0.0000°N, 0.0000°E)
Time: 04:02:23
(UTC+00:00)
Language:

Transit 2A - Orbit

View from above orbital plane
View from above orbital plane
View from above satellite
View from above satellite

Ground track
Ground track

The orbit data is extracted from the following two-line orbital elements,

1 00045U 60007A   14303.49655166  .00000280  00000-0  97669-4 0  2742
2 00045 066.6974 040.2501 0256080 010.9714 064.9495 14.33096252827889
Epoch (UTC): 30 October 2014 11:55:02
Eccentricity: 0.0256080
inclination: 66.6974°
perigee height: 598 km
apogee height: 965 km
right ascension of ascending node: 40.2501°
argument of perigee: 10.9714°
revolutions per day: 14.33096252
mean anomaly at epoch: 64.9495°
orbit number at epoch: 82788

The dashed part of the orbit path shows where the satellite is in the earth's shadow,  

DLR